Powrót do katalogu

TDRS 6

AktywnyŁącznośćGEO
NORAD 22314·PAYLOAD·🇺🇸 United States

Wystrzelony Jan 13, 1993 z Cape Canaveral Space Force Station

Loading…

TLE

ŚwieżeSource: Space-Track

Epoka: Sep 14, 2026, 16:55 UTC

1 22314U 93003B   26257.70521041 -.00000301  00000-0  00000-0 0  9994
2 22314  14.1859 356.3818 0009643 200.1077   5.2795  1.00275067123300

Śledź TDRS 6 w czasie rzeczywistym z AllMySat

Download on the App Store